SBSP Airport Information

Runway Information
Runway 17L Length 4708 ft width 148 ft
Elevation 0 ft Threshold 0 ft Heading 0
Runway 35R Length 4708 ft Width 148 ft
Elevation 0 ft Threshold 0 ft Heading 0
Runway 17R Length 6365 ft width 148 ft
Elevation 0 ft Threshold 0 ft Heading 0
Runway 35L Length 6365 ft Width 148 ft
Elevation 0 ft Threshold 0 ft Heading 0
Airport Frequencies
Type APP Name SAO PAULO Frequency 119.8 MHZ
Type ATIS Name ATIS Frequency 127.65 MHZ
Type CLD Name CLNC DEL Frequency 120.6 MHZ
Type GND Name GND Frequency 121.9 MHZ
Type TWR Name SAO PAULO Frequency 127.15 MHZ
Airport Navaids
Type VOR-DME Name Congonhas Frequency 116900 KHZ
Type NDB Name Diadema Frequency 200 KHZ
Type NDB Name Mada Frequency 290 KHZ
Type NDB Name Metro Frequency 330 KHZ
Type NDB Name Sao Paulo Frequency 250 KHZ
Airport Weather Information & NOTAM
ADDS - METARS form results

(1009 UTC 18 August 2018)
 
METAR text: SBSP 181000Z 13005KT 9999 SCT017 13/12 Q1027
Conditions at: SBSP (SAO PAULO/CONGON, BR) observed 1000 UTC 18 August 2018
Temperature: 13.0°C (55°F)
Dewpoint: 12.0°C (54°F) [RH = 94%]
Pressure (altimeter): 30.32 inches Hg (1027.0 mb)
Winds: from the SE (130 degrees) at 6 MPH (5 knots; 2.6 m/s)
Visibility: 6 or more miles (10+ km)
Ceiling: at least 12,000 feet AGL
Clouds: scattered clouds at 1700 feet AGL
Weather: no significant weather observed at this time